GW1111 Weather Reports


time (UTC)temp
F
wind
direction
speed
knots
gust
knots
rain 1hr
in
rain 24hr
in
rain mn
in
humidity
%
barometer
mb
20260510063942 55 148 0.0 0.0 0.00 0.00 0.00 73 1012.3
20260510062939 55 62 0.0 0.0 0.00 0.00 0.00 73 1012.3
20260510061941 54 106 0.0 0.0 0.00 0.00 0.00 73 1012.1
20260510061419 54 300 0.0 0.0 0.00 0.00 0.00 74 1012.0
20260510055938 54 337 0.0 0.0 0.00 0.00 0.00 74 1012.0
20260510054938 53 311 0.0 0.0 0.00 0.00 0.00 75 1012.1
20260510053939 53 336 0.0 0.0 0.00 0.00 0.00 76 1012.2
20260510052940 53 241 0.0 0.0 0.00 0.00 0.00 76 1012.2
20260510051939 52 92 0.0 0.0 0.00 0.00 0.00 76 1012.2
20260510050939 52 209 0.0 0.0 0.00 0.00 0.00 77 1012.3
20260510045939 52 271 0.0 0.0 0.00 0.00 0.00 77 1012.3
20260510044938 52 237 0.0 0.0 0.00 0.00 0.00 76 1012.5
20260510043939 52 237 0.0 0.0 0.00 0.00 0.00 76 1012.4
20260510042940 52 272 0.0 0.0 0.00 0.00 0.00 77 1012.5
20260510041936 52 265 0.0 0.0 0.00 0.00 0.00 76 1012.5
20260510040935 52 265 0.0 0.0 0.00 0.00 0.00 75 1012.6
20260510040415 53 260 0.0 0.0 0.00 0.00 0.00 75 1012.5
20260510034934 53 49 0.0 0.0 0.00 0.00 0.00 75 1012.5
20260510034414 53 312 0.0 0.0 0.00 0.00 0.00 75 1012.7
20260510032935 54 55 0.0 0.0 0.00 0.00 0.00 74 1012.8
20260510031934 54 69 0.0 0.0 0.00 0.00 0.00 74 1012.9
20260510030934 55 36 0.0 0.0 0.00 0.00 0.00 73 1013.0
20260510025936 55 104 0.0 0.0 0.00 0.00 0.00 72 1013.0
20260510024935 55 36 0.0 0.0 0.00 0.00 0.00 72 1013.1
20260510023930 55 309 0.0 0.0 0.00 0.00 0.00 73 1013.1
20260510022930 56 334 0.0 0.0 0.00 0.00 0.00 73 1013.2
20260510021929 56 138 0.0 0.0 0.00 0.00 0.00 73 1013.2
20260510020930 56 324 0.0 0.0 0.00 0.00 0.00 73 1013.2
20260510020406 56 294 0.0 0.0 0.00 0.00 0.00 73 1013.2
20260510014931 56 294 0.0 0.0 0.00 0.00 0.00 72 1013.4
20260510013933 56 294 0.0 0.0 0.00 0.00 0.00 73 1013.3
20260510013410 56 241 0.0 0.0 0.00 0.00 0.00 72 1013.2
20260510011929 56 248 0.0 0.0 0.00 0.00 0.00 73 1012.9
20260510010930 56 248 0.0 0.0 0.00 0.00 0.00 72 1013.0
20260510005929 56 248 0.0 0.0 0.00 0.00 0.00 72 1013.2
20260510004929 57 248 0.0 0.0 0.00 0.00 0.00 71 1012.9
20260510003929 57 248 0.0 0.0 0.00 0.00 0.00 71 1013.0
20260510002930 57 12 0.0 0.0 0.00 0.00 0.00 70 1013.2
20260510001932 58 22 0.0 0.0 0.00 0.00 0.00 70 1013.4
20260510000930 58 329 0.0 0.0 0.00 0.00 0.00 71 1013.5
20260509235932 58 304 0.0 0.0 0.00 0.00 0.00 71 1013.7
20260509234931 58 326 0.0 0.0 0.00 0.00 0.00 70 1013.8
20260509233929 58 313 0.0 0.0 0.00 0.00 0.00 71 1013.9
20260509233903 58 88 0.0 0.0 0.00 0.00 0.00 71 1014.0
20260509231929 58 340 0.0 0.0 0.00 0.00 0.00 71 1013.9
20260509230927 58 329 0.0 0.0 0.00 0.00 0.00 71 1013.8
20260509225924 58 284 0.0 0.0 0.00 0.00 0.00 71 1013.9
20260509224925 58 108 0.0 0.0 0.00 0.00 0.00 71 1013.8
20260509223926 58 5 0.0 0.0 0.00 0.00 0.00 72 1013.8
20260509222925 58 317 0.0 0.0 0.00 0.00 0.00 72 1013.8
20260509221923 58 108 0.0 0.0 0.00 0.00 0.00 72 1013.8
20260509221840 59 291 0.0 0.0 0.00 0.00 0.00 71 1013.9
20260509215924 59 242 0.0 0.0 0.00 0.00 0.00 71 1014.0
20260509214926 60 117 0.0 0.0 0.00 0.00 0.00 71 1014.0
20260509214414 60 227 0.0 0.0 0.00 0.00 0.00 72 1014.1
20260509212925 60 306 0.0 0.0 0.00 0.00 0.00 72 1013.9
20260509211924 60 282 0.0 0.0 0.00 0.00 0.00 71 1013.9
20260509210925 60 86 0.0 0.0 0.00 0.00 0.00 72 1014.0
20260509210402 60 148 0.0 0.0 0.00 0.00 0.00 73 1013.7
20260509204923 60 142 0.0 0.0 0.00 0.00 0.00 74 1013.7
20260509203924 60 5 0.0 0.0 0.00 0.00 0.00 75 1013.9
20260509202924 60 5 0.0 0.0 0.00 0.00 0.00 76 1013.8
20260509201921 60 5 0.0 0.0 0.00 0.00 0.00 76 1013.9
20260509200926 61 5 0.0 0.0 0.00 0.00 0.00 73 1013.8
20260509200839 62 5 0.0 0.0 0.00 0.00 0.00 72 1013.7
20260509194923 62 5 0.0 0.0 0.00 0.00 0.00 71 1013.6
20260509193924 62 5 0.0 0.0 0.00 0.00 0.00 70 1013.3
20260509193410 63 5 0.0 0.0 0.00 0.00 0.00 70 1013.4
20260509191922 63 5 0.0 0.0 0.00 0.00 0.00 70 1013.4
20260509190920 63 5 0.0 0.0 0.00 0.00 0.00 70 1013.3
20260509185921 63 5 0.0 0.0 0.00 0.00 0.00 70 1013.2
20260509184921 64 5 0.0 0.0 0.00 0.00 0.00 70 1013.2
20260509183922 64 5 0.0 0.0 0.00 0.00 0.00 70 1013.2
20260509182921 65 5 0.0 0.0 0.00 0.00 0.00 69 1013.0
20260509182424 65 5 0.0 0.0 0.00 0.00 0.00 66 1013.1
20260509180921 66 5 0.0 0.0 0.00 0.00 0.00 66 1013.0
20260509175921 66 5 0.0 0.0 0.00 0.00 0.00 66 1012.9
20260509174921 67 5 0.0 0.0 0.00 0.00 0.00 64 1012.9
20260509173922 67 30 0.0 0.0 0.00 0.00 0.00 64 1012.8
20260509173843 68 339 0.0 0.0 0.00 0.00 0.00 62 1012.6
20260509171922 69 182 0.0 0.0 0.00 0.00 0.00 61 1012.7
20260509170920 70 172 0.0 0.0 0.00 0.00 0.00 63 1012.8
20260509165921 71 295 0.0 0.0 0.00 0.00 0.00 60 1012.8
20260509164920 71 318 0.0 0.0 0.00 0.00 0.00 59 1012.9
20260509163922 71 307 0.0 0.0 0.00 0.00 0.00 59 1012.8
20260509162920 72 334 0.0 0.0 0.00 0.00 0.00 62 1012.9
20260509162412 71 291 0.0 0.0 0.00 0.00 0.00 60 1013.1
20260509160922 71 284 0.0 0.0 0.00 0.00 0.00 60 1013.1
20260509155921 71 277 0.0 0.0 0.00 0.00 0.00 64 1013.2
20260509154923 73 132 0.0 0.0 0.00 0.00 0.00 57 1013.1
20260509153920 73 329 0.0 0.0 0.00 0.00 0.00 59 1013.2
20260509152920 72 294 0.0 0.0 0.00 0.00 0.00 63 1013.2
20260509151922 71 240 0.0 0.0 0.00 0.00 0.00 62 1013.3
20260509150921 73 136 0.0 0.0 0.00 0.00 0.00 56 1013.3
20260509145919 71 199 0.0 0.0 0.00 0.00 0.00 59 1013.3
20260509144920 72 200 0.0 0.0 0.00 0.00 0.00 61 1013.4
20260509144408 72 78 0.0 0.0 0.00 0.00 0.00 58 1013.4
20260509142918 73 17 0.0 0.0 0.00 0.00 0.00 59 1013.5
20260509141918 72 192 0.0 0.0 0.00 0.00 0.00 55 1013.5
20260509140919 73 32 0.0 0.0 0.00 0.00 0.00 59 1013.4
20260509135918 71 321 0.0 0.0 0.00 0.00 0.00 59 1013.5
20260509134918 72 267 0.0 0.0 0.00 0.00 0.00 58 1013.4
20260509134406 72 194 0.0 0.0 0.00 0.00 0.00 58 1013.4
20260509132916 73 241 0.0 0.0 0.00 0.00 0.00 62 1013.5
20260509131917 69 267 0.0 0.0 0.00 0.00 0.00 63 1013.7
20260509130917 70 136 0.0 0.0 0.00 0.00 0.00 64 1013.7
20260509125919 69 332 0.0 0.0 0.00 0.00 0.00 61 1013.8
20260509124914 71 163 0.0 0.0 0.00 0.00 0.00 58 1013.8
20260509123913 72 273 0.0 0.0 0.00 0.00 0.00 62 1013.8
20260509122916 70 182 0.0 0.0 0.00 0.00 0.00 64 1014.1
20260509121914 70 189 0.0 0.0 0.00 0.00 0.00 60 1014.2
20260509120909 71 161 0.0 0.0 0.00 0.00 0.00 61 1014.2
20260509115912 71 0 0.0 0.0 0.00 0.00 0.00 62 1014.3
20260509115355 71 237 0.0 0.0 0.00 0.00 0.00 64 1014.3
20260509113908 70 203 0.0 0.0 0.00 0.00 0.00 64 1014.5
20260509112910 69 224 0.0 0.0 0.00 0.00 0.00 65 1014.5
20260509111908 69 338 0.0 0.0 0.00 0.00 0.00 62 1014.7
20260509111838 69 231 0.0 0.0 0.00 0.00 0.00 64 1014.8
20260509110348 68 242 0.0 0.0 0.00 0.00 0.00 65 1015.0
20260509104901 69 51 0.0 0.0 0.00 0.00 0.00 66 1015.2
20260509103902 67 297 0.0 0.0 0.00 0.00 0.00 63 1015.3
20260509102902 67 325 0.0 0.0 0.00 0.00 0.00 65 1015.4
20260509102822 67 134 0.0 0.0 0.00 0.00 0.00 68 1015.4
20260509100904 66 255 0.0 0.0 0.00 0.00 0.00 65 1015.5
20260509095902 66 284 0.0 0.0 0.00 0.00 0.00 65 1015.5
20260509094901 65 327 0.0 0.0 0.00 0.00 0.00 65 1015.5
20260509093900 64 232 0.0 0.0 0.00 0.00 0.00 68 1015.6
20260509092858 64 268 0.0 0.0 0.00 0.00 0.00 67 1015.5
20260509091855 63 342 0.0 0.0 0.00 0.00 0.00 68 1015.6
20260509090857 62 319 0.0 0.0 0.00 0.00 0.00 71 1015.7
20260509090336 61 206 0.0 0.0 0.00 0.00 0.00 73 1015.6
20260509084854 60 306 0.0 0.0 0.00 0.00 0.00 75 1015.6
20260509083857 60 126 0.0 0.0 0.00 0.00 0.00 73 1015.6
20260509082852 59 309 0.0 0.0 0.00 0.00 0.00 76 1015.6
20260509082334 57 319 0.0 0.0 0.00 0.00 0.00 80 1015.7
20260509080853 57 355 0.0 0.0 0.00 0.00 0.00 80 1015.8
20260509075852 56 351 0.0 0.0 0.00 0.00 0.00 84 1015.8
20260509074850 55 119 0.0 0.0 0.00 0.00 0.00 89 1015.8
20260509073850 54 83 0.0 0.0 0.00 0.00 0.00 92 1015.9
20260509072852 52 89 0.0 0.0 0.00 0.00 0.00 94 1016.0
20260509071847 51 101 0.0 0.0 0.00 0.00 0.00 94 1015.9
20260509070847 50 100 0.0 0.0 0.00 0.00 0.00 94 1016.1
20260509065846 49 101 0.0 0.0 0.00 0.00 0.00 94 1016.2
20260509065323 48 101 0.0 0.0 0.00 0.00 0.00 95 1016.0